Weather in Quzhou

China     28°57′25″N   118°52′14″E
temp.,
°C
wind,
m/s
gust,
m/s
humid.,
%
clouds,
%
prec.,
mm/h
press.,
hPa
HPBL,
m
15 april, thu
thu1523:00+12ene259599 1.2 1018268
02:00+11e369686 1.2 1016335
05:00+11ene2596100 0.0 1016257
08:00+11ene2397100 0.6 1017190
11:00+12ese1297100 0.3 1017136
14:00+14s1090100 0.3 1016241
17:00+14sw0089100 0.0 1016200
20:00+13ene019595 0.0 101712
16 april, fri
fri1623:00+14wsw009494 0.0 101812
02:00+13nnw119442 0.0 101711
05:00+12n11945 0.0 101710
08:00+16e11845 0.0 1017250
11:00+21ese22715 0.0 1017760
14:00+23e226595 0.4 10151074
17:00+20nne2380100 1.1 1015109
20:00+17n1295100 4.1 101795
17 april, sat
sat1723:00+16ne1296100 4.3 1019121
02:00+16ene2497100 6.0 1019192
05:00+15ene129521 0.1 101976
08:00+18nw0182100 0.1 1021406
11:00+22ne2341100 0.0 10221408
14:00+23ne2242100 0.0 10201683
17:00+20ene2457100 0.0 1020242
20:00+14nne2262100 0.0 102338
18 april, sun
sun1823:00+13ne2260100 0.0 102442
02:00+12ne2466100 0.0 1023105
05:00+11ene2471100 0.0 1023100
08:00+13ene3662100 0.0 1023347
11:00+17ene344898 0.0 1022754
14:00+19e444392 0.0 1019973
17:00+18ene4657100 0.0 1018427
20:00+15ne3464100 0.0 101974
19 april, mon
mon1923:00+13ene2266100 0.0 101934
02:00+12ene2370100 0.0 101770
05:00+11ene23749 0.0 101764
08:00+13e2475100 0.0 1018214
11:00+18e345628 0.0 1018610
14:00+21e33515 0.0 1015823
17:00+20e35635 0.0 1014460
20:00+16nne22685 0.0 101518